Time,TemperatureF,DewpointF,PressureIn,WindDirection,WindDirectionDegrees,WindSpeedMPH,WindSpeedGustMPH,Humidity,HourlyPrecipIn,Conditions,Clouds,dailyrainin,SoftwareType,DateUTC
2013-04-03 00:02:00,38.0,18.0,30.09,North,-999,-999.0,-999.0,43,-99.99,,,-99.99,,2013-04-03 04:02:00,
2013-04-03 00:12:00,38.0,17.0,30.09,North,-999,-999.0,-999.0,41,-99.99,,,-99.99,,2013-04-03 04:12:00,
2013-04-03 00:23:00,38.0,17.0,30.09,North,-999,-999.0,-999.0,41,-99.99,,,-99.99,,2013-04-03 04:23:00,
2013-04-03 00:32:00,38.0,17.0,30.10,North,-999,-999.0,-999.0,42,-99.99,,,-99.99,,2013-04-03 04:32:00,
2013-04-03 00:42:00,38.0,17.0,30.10,North,-999,-999.0,-999.0,42,-99.99,,,-99.99,,2013-04-03 04:42:00,
2013-04-03 00:53:00,37.0,16.0,30.10,North,-999,-999.0,-999.0,41,-99.99,,,-99.99,,2013-04-03 04:53:00,
2013-04-03 01:01:00,37.0,16.0,30.10,North,-999,-999.0,-999.0,41,-99.99,,,-99.99,,2013-04-03 05:01:00,
2013-04-03 01:11:00,37.0,16.0,30.10,North,-999,-999.0,-999.0,41,-99.99,,,-99.99,,2013-04-03 05:11:00,
2013-04-03 01:22:00,37.0,15.0,30.09,North,-999,-999.0,-999.0,40,-99.99,,,-99.99,,2013-04-03 05:22:00,
2013-04-03 01:31:00,37.0,15.0,30.10,North,-999,-999.0,-999.0,40,-99.99,,,-99.99,,2013-04-03 05:31:00,
2013-04-03 01:41:00,37.0,14.0,30.10,North,-999,-999.0,-999.0,39,-99.99,,,-99.99,,2013-04-03 05:41:00,
2013-04-03 01:52:00,37.0,14.0,30.10,North,-999,-999.0,-999.0,39,-99.99,,,-99.99,,2013-04-03 05:52:00,
2013-04-03 02:01:00,36.0,15.0,30.10,North,-999,-999.0,-999.0,40,-99.99,,,-99.99,,2013-04-03 06:01:00,
2013-04-03 02:11:00,36.0,14.0,30.10,North,-999,-999.0,-999.0,39,-99.99,,,-99.99,,2013-04-03 06:11:00,
2013-04-03 02:21:00,36.0,14.0,30.10,North,-999,-999.0,-999.0,39,-99.99,,,-99.99,,2013-04-03 06:21:00,
2013-04-03 02:31:00,36.0,15.0,30.10,North,-999,-999.0,-999.0,40,-99.99,,,-99.99,,2013-04-03 06:31:00,
2013-04-03 02:41:00,36.0,15.0,30.09,North,-999,-999.0,-999.0,41,-99.99,,,-99.99,,2013-04-03 06:41:00,
2013-04-03 02:52:00,36.0,14.0,30.09,North,-999,-999.0,-999.0,40,-99.99,,,-99.99,,2013-04-03 06:52:00,
2013-04-03 03:01:00,36.0,14.0,30.09,North,-999,-999.0,-999.0,40,-99.99,,,-99.99,,2013-04-03 07:01:00,
2013-04-03 03:22:00,36.0,15.0,30.08,North,-999,-999.0,-999.0,41,-99.99,,,-99.99,,2013-04-03 07:22:00,
2013-04-03 03:41:00,36.0,16.0,30.08,North,-999,-999.0,-999.0,43,-99.99,,,-99.99,,2013-04-03 07:41:00,
2013-04-03 03:52:00,35.0,16.0,30.08,North,-999,-999.0,-999.0,44,-99.99,,,-99.99,,2013-04-03 07:52:00,
2013-04-03 04:01:00,35.0,16.0,30.08,North,-999,-999.0,-999.0,44,-99.99,,,-99.99,,2013-04-03 08:01:00,
2013-04-03 04:11:00,35.0,16.0,30.08,North,-999,-999.0,-999.0,45,-99.99,,,-99.99,,2013-04-03 08:11:00,
2013-04-03 04:21:00,35.0,16.0,30.08,North,-999,-999.0,-999.0,45,-99.99,,,-99.99,,2013-04-03 08:21:00,
2013-04-03 04:31:00,35.0,16.0,30.08,North,-999,-999.0,-999.0,44,-99.99,,,-99.99,,2013-04-03 08:31:00,
2013-04-03 04:41:00,35.0,17.0,30.08,North,-999,-999.0,-999.0,47,-99.99,,,-99.99,,2013-04-03 08:41:00,
2013-04-03 04:51:00,35.0,17.0,30.08,North,-999,-999.0,-999.0,47,-99.99,,,-99.99,,2013-04-03 08:51:00,
2013-04-03 05:01:00,35.0,17.0,30.08,North,-999,-999.0,-999.0,47,-99.99,,,-99.99,,2013-04-03 09:01:00,
2013-04-03 05:21:00,35.0,17.0,30.09,North,-999,-999.0,-999.0,48,-99.99,,,-99.99,,2013-04-03 09:21:00,
2013-04-03 05:32:00,35.0,18.0,30.09,North,-999,-999.0,-999.0,49,-99.99,,,-99.99,,2013-04-03 09:32:00,
2013-04-03 05:42:00,35.0,18.0,30.09,North,-999,-999.0,-999.0,49,-99.99,,,-99.99,,2013-04-03 09:42:00,
2013-04-03 05:52:00,35.0,17.0,30.11,North,-999,-999.0,-999.0,49,-99.99,,,-99.99,,2013-04-03 09:52:00,
2013-04-03 06:02:00,35.0,17.0,30.11,North,-999,-999.0,-999.0,49,-99.99,,,-99.99,,2013-04-03 10:02:00,
2013-04-03 06:12:00,35.0,18.0,30.11,North,-999,-999.0,-999.0,51,-99.99,,,-99.99,,2013-04-03 10:12:00,
2013-04-03 06:22:00,35.0,18.0,30.11,North,-999,-999.0,-999.0,51,-99.99,,,-99.99,,2013-04-03 10:22:00,
2013-04-03 06:32:00,34.0,18.0,30.11,North,-999,-999.0,-999.0,50,-99.99,,,-99.99,,2013-04-03 10:32:00,
2013-04-03 06:42:00,34.0,18.0,30.11,North,-999,-999.0,-999.0,50,-99.99,,,-99.99,,2013-04-03 10:42:00,
2013-04-03 06:52:00,34.0,18.0,30.12,North,-999,-999.0,-999.0,51,-99.99,,,-99.99,,2013-04-03 10:52:00,
2013-04-03 07:02:00,34.0,18.0,30.12,North,-999,-999.0,-999.0,51,-99.99,,,-99.99,,2013-04-03 11:02:00,
2013-04-03 07:12:00,34.0,19.0,30.13,North,-999,-999.0,-999.0,52,-99.99,,,-99.99,,2013-04-03 11:12:00,
2013-04-03 07:21:00,34.0,19.0,30.13,North,-999,-999.0,-999.0,52,-99.99,,,-99.99,,2013-04-03 11:21:00,
2013-04-03 07:32:00,34.0,19.0,30.13,North,-999,-999.0,-999.0,52,-99.99,,,-99.99,,2013-04-03 11:32:00,
2013-04-03 07:41:00,34.0,19.0,30.13,North,-999,-999.0,-999.0,52,-99.99,,,-99.99,,2013-04-03 11:41:00,
2013-04-03 07:52:00,35.0,18.0,30.15,North,-999,-999.0,-999.0,50,-99.99,,,-99.99,,2013-04-03 11:52:00,
2013-04-03 08:01:00,35.0,18.0,30.15,North,-999,-999.0,-999.0,50,-99.99,,,-99.99,,2013-04-03 12:01:00,
2013-04-03 08:11:00,35.0,18.0,30.15,North,-999,-999.0,-999.0,50,-99.99,,,-99.99,,2013-04-03 12:11:00,
2013-04-03 08:21:00,35.0,18.0,30.15,North,-999,-999.0,-999.0,50,-99.99,,,-99.99,,2013-04-03 12:21:00,
2013-04-03 08:31:00,35.0,19.0,30.16,North,-999,-999.0,-999.0,51,-99.99,,,-99.99,,2013-04-03 12:31:00,
2013-04-03 08:41:00,35.0,19.0,30.16,North,-999,-999.0,-999.0,51,-99.99,,,-99.99,,2013-04-03 12:41:00,
2013-04-03 08:52:00,35.0,19.0,30.16,North,-999,-999.0,-999.0,51,-99.99,,,-99.99,,2013-04-03 12:52:00,
2013-04-03 09:01:00,35.0,19.0,30.16,North,-999,-999.0,-999.0,51,-99.99,,,-99.99,,2013-04-03 13:01:00,
2013-04-03 09:21:00,35.0,18.0,30.16,North,-999,-999.0,-999.0,50,-99.99,,,-99.99,,2013-04-03 13:21:00,
2013-04-03 09:31:00,35.0,19.0,30.16,North,-999,-999.0,-999.0,51,-99.99,,,-99.99,,2013-04-03 13:31:00,
2013-04-03 09:41:00,35.0,17.0,30.16,North,-999,-999.0,-999.0,47,-99.99,,,-99.99,,2013-04-03 13:41:00,
2013-04-03 09:52:00,35.0,17.0,30.16,North,-999,-999.0,-999.0,47,-99.99,,,-99.99,,2013-04-03 13:52:00,
2013-04-03 10:01:00,35.0,17.0,30.16,North,-999,-999.0,-999.0,47,-99.99,,,-99.99,,2013-04-03 14:01:00,
2013-04-03 10:11:00,35.0,17.0,30.16,North,-999,-999.0,-999.0,46,-99.99,,,-99.99,,2013-04-03 14:11:00,
2013-04-03 10:21:00,35.0,17.0,30.16,North,-999,-999.0,-999.0,46,-99.99,,,-99.99,,2013-04-03 14:21:00,
2013-04-03 10:31:00,36.0,17.0,30.15,North,-999,-999.0,-999.0,45,-99.99,,,-99.99,,2013-04-03 14:31:00,
2013-04-03 10:41:00,36.0,17.0,30.15,North,-999,-999.0,-999.0,45,-99.99,,,-99.99,,2013-04-03 14:41:00,
2013-04-03 10:51:00,36.0,17.0,30.15,North,-999,-999.0,-999.0,44,-99.99,,,-99.99,,2013-04-03 14:51:00,
2013-04-03 11:01:00,36.0,17.0,30.15,North,-999,-999.0,-999.0,44,-99.99,,,-99.99,,2013-04-03 15:01:00,
2013-04-03 11:11:00,36.0,17.0,30.15,North,-999,-999.0,-999.0,44,-99.99,,,-99.99,,2013-04-03 15:11:00,
2013-04-03 11:21:00,36.0,17.0,30.15,North,-999,-999.0,-999.0,44,-99.99,,,-99.99,,2013-04-03 15:21:00,
2013-04-03 11:32:00,36.0,17.0,30.15,North,-999,-999.0,-999.0,44,-99.99,,,-99.99,,2013-04-03 15:32:00,
2013-04-03 11:42:00,37.0,17.0,30.15,North,-999,-999.0,-999.0,43,-99.99,,,-99.99,,2013-04-03 15:42:00,
2013-04-03 11:53:00,37.0,16.0,30.15,North,-999,-999.0,-999.0,41,-99.99,,,-99.99,,2013-04-03 15:53:00,
2013-04-03 12:02:00,37.0,16.0,30.15,North,-999,-999.0,-999.0,41,-99.99,,,-99.99,,2013-04-03 16:02:00,
2013-04-03 12:12:00,38.0,16.0,30.15,North,-999,-999.0,-999.0,41,-99.99,,,-99.99,,2013-04-03 16:12:00,
2013-04-03 12:22:00,38.0,16.0,30.15,North,-999,-999.0,-999.0,41,-99.99,,,-99.99,,2013-04-03 16:22:00,
2013-04-03 12:32:00,38.0,16.0,30.15,North,-999,-999.0,-999.0,41,-99.99,,,-99.99,,2013-04-03 16:32:00,
2013-04-03 12:52:00,39.0,17.0,30.15,North,-999,-999.0,-999.0,40,-99.99,,,-99.99,,2013-04-03 16:52:00,
2013-04-03 13:02:00,39.0,17.0,30.15,North,-999,-999.0,-999.0,40,-99.99,,,-99.99,,2013-04-03 17:02:00,
2013-04-03 13:11:00,39.0,18.0,30.14,North,-999,-999.0,-999.0,42,-99.99,,,-99.99,,2013-04-03 17:11:00,
2013-04-03 13:22:00,39.0,18.0,30.14,North,-999,-999.0,-999.0,42,-99.99,,,-99.99,,2013-04-03 17:22:00,
2013-04-03 13:32:00,40.0,17.0,30.14,North,-999,-999.0,-999.0,40,-99.99,,,-99.99,,2013-04-03 17:32:00,
2013-04-03 13:44:00,40.0,17.0,30.14,North,-999,-999.0,-999.0,38,-99.99,,,-99.99,,2013-04-03 17:44:00,
2013-04-03 13:52:00,40.0,16.0,30.14,North,-999,-999.0,-999.0,37,-99.99,,,-99.99,,2013-04-03 17:52:00,
2013-04-03 14:02:00,40.0,16.0,30.14,North,-999,-999.0,-999.0,37,-99.99,,,-99.99,,2013-04-03 18:02:00,
2013-04-03 14:12:00,40.0,17.0,30.13,North,-999,-999.0,-999.0,37,-99.99,,,-99.99,,2013-04-03 18:12:00,
2013-04-03 14:32:00,41.0,17.0,30.12,North,-999,-999.0,-999.0,38,-99.99,,,-99.99,,2013-04-03 18:32:00,
2013-04-03 14:42:00,41.0,17.0,30.12,North,-999,-999.0,-999.0,38,-99.99,,,-99.99,,2013-04-03 18:42:00,
2013-04-03 14:52:00,42.0,17.0,30.12,North,-999,-999.0,-999.0,35,-99.99,,,-99.99,,2013-04-03 18:52:00,
2013-04-03 15:01:00,42.0,17.0,30.12,North,-999,-999.0,-999.0,35,-99.99,,,-99.99,,2013-04-03 19:01:00,
2013-04-03 15:11:00,42.0,16.0,30.11,North,-999,-999.0,-999.0,34,-99.99,,,-99.99,,2013-04-03 19:11:00,
2013-04-03 15:21:00,42.0,16.0,30.11,North,-999,-999.0,-999.0,34,-99.99,,,-99.99,,2013-04-03 19:21:00,
2013-04-03 15:31:00,42.0,16.0,30.11,North,-999,-999.0,-999.0,34,-99.99,,,-99.99,,2013-04-03 19:31:00,
2013-04-03 15:41:00,42.0,16.0,30.10,North,-999,-999.0,-999.0,33,-99.99,,,-99.99,,2013-04-03 19:41:00,
2013-04-03 15:52:00,42.0,16.0,30.10,North,-999,-999.0,-999.0,33,-99.99,,,-99.99,,2013-04-03 19:52:00,
2013-04-03 16:01:00,42.0,16.0,30.10,North,-999,-999.0,-999.0,33,-99.99,,,-99.99,,2013-04-03 20:01:00,
2013-04-03 16:11:00,43.0,16.0,30.10,North,-999,-999.0,-999.0,33,-99.99,,,-99.99,,2013-04-03 20:11:00,
2013-04-03 16:21:00,43.0,16.0,30.10,North,-999,-999.0,-999.0,33,-99.99,,,-99.99,,2013-04-03 20:21:00,
2013-04-03 16:31:00,43.0,16.0,30.10,North,-999,-999.0,-999.0,33,-99.99,,,-99.99,,2013-04-03 20:31:00,
2013-04-03 16:42:00,43.0,17.0,30.10,North,-999,-999.0,-999.0,34,-99.99,,,-99.99,,2013-04-03 20:42:00,
2013-04-03 16:52:00,44.0,17.0,30.10,North,-999,-999.0,-999.0,34,-99.99,,,-99.99,,2013-04-03 20:52:00,
2013-04-03 17:01:00,44.0,17.0,30.10,North,-999,-999.0,-999.0,34,-99.99,,,-99.99,,2013-04-03 21:01:00,
2013-04-03 17:11:00,44.0,18.0,30.10,North,-999,-999.0,-999.0,35,-99.99,,,-99.99,,2013-04-03 21:11:00,
2013-04-03 17:21:00,44.0,18.0,30.10,North,-999,-999.0,-999.0,35,-99.99,,,-99.99,,2013-04-03 21:21:00,
2013-04-03 17:32:00,44.0,18.0,30.11,North,-999,-999.0,-999.0,34,-99.99,,,-99.99,,2013-04-03 21:32:00,
2013-04-03 17:42:00,44.0,17.0,30.11,North,-999,-999.0,-999.0,34,-99.99,,,-99.99,,2013-04-03 21:42:00,
2013-04-03 17:52:00,44.0,17.0,30.11,North,-999,-999.0,-999.0,34,-99.99,,,-99.99,,2013-04-03 21:52:00,
2013-04-03 18:02:00,44.0,17.0,30.11,North,-999,-999.0,-999.0,34,-99.99,,,-99.99,,2013-04-03 22:02:00,
2013-04-03 18:12:00,44.0,17.0,30.11,North,-999,-999.0,-999.0,34,-99.99,,,-99.99,,2013-04-03 22:12:00,
2013-04-03 18:22:00,44.0,18.0,30.13,North,-999,-999.0,-999.0,35,-99.99,,,-99.99,,2013-04-03 22:22:00,
2013-04-03 18:32:00,44.0,18.0,30.14,North,-999,-999.0,-999.0,34,-99.99,,,-99.99,,2013-04-03 22:32:00,
2013-04-03 18:42:00,44.0,17.0,30.14,North,-999,-999.0,-999.0,34,-99.99,,,-99.99,,2013-04-03 22:42:00,
2013-04-03 18:52:00,43.0,18.0,30.15,North,-999,-999.0,-999.0,35,-99.99,,,-99.99,,2013-04-03 22:52:00,
2013-04-03 19:01:00,43.0,18.0,30.15,North,-999,-999.0,-999.0,35,-99.99,,,-99.99,,2013-04-03 23:01:00,
2013-04-03 19:11:00,43.0,17.0,30.16,North,-999,-999.0,-999.0,35,-99.99,,,-99.99,,2013-04-03 23:11:00,
2013-04-03 19:21:00,42.0,17.0,30.17,North,-999,-999.0,-999.0,36,-99.99,,,-99.99,,2013-04-03 23:21:00,
2013-04-03 19:32:00,42.0,17.0,30.19,North,-999,-999.0,-999.0,36,-99.99,,,-99.99,,2013-04-03 23:32:00,
2013-04-03 19:42:00,42.0,17.0,30.19,North,-999,-999.0,-999.0,36,-99.99,,,-99.99,,2013-04-03 23:42:00,
2013-04-03 19:52:00,42.0,17.0,30.19,North,-999,-999.0,-999.0,36,-99.99,,,-99.99,,2013-04-03 23:52:00,
2013-04-03 20:01:00,41.0,17.0,30.19,North,-999,-999.0,-999.0,36,-99.99,,,-99.99,,2013-04-04 00:01:00,
2013-04-03 20:21:00,41.0,16.0,30.20,North,-999,-999.0,-999.0,36,-99.99,,,-99.99,,2013-04-04 00:21:00,
2013-04-03 20:32:00,40.0,16.0,30.21,North,-999,-999.0,-999.0,36,-99.99,,,-99.99,,2013-04-04 00:32:00,
2013-04-03 20:42:00,40.0,17.0,30.22,North,-999,-999.0,-999.0,38,-99.99,,,-99.99,,2013-04-04 00:42:00,
2013-04-03 20:51:00,40.0,17.0,30.24,North,-999,-999.0,-999.0,39,-99.99,,,-99.99,,2013-04-04 00:51:00,
2013-04-03 21:02:00,40.0,17.0,30.24,North,-999,-999.0,-999.0,39,-99.99,,,-99.99,,2013-04-04 01:02:00,
2013-04-03 21:31:00,39.0,17.0,30.25,North,-999,-999.0,-999.0,40,-99.99,,,-99.99,,2013-04-04 01:31:00,
2013-04-03 21:42:00,39.0,17.0,30.25,North,-999,-999.0,-999.0,40,-99.99,,,-99.99,,2013-04-04 01:42:00,
2013-04-03 21:52:00,39.0,18.0,30.27,North,-999,-999.0,-999.0,42,-99.99,,,-99.99,,2013-04-04 01:52:00,
2013-04-03 22:01:00,39.0,18.0,30.27,North,-999,-999.0,-999.0,42,-99.99,,,-99.99,,2013-04-04 02:01:00,
2013-04-03 22:11:00,38.0,18.0,30.27,North,-999,-999.0,-999.0,43,-99.99,,,-99.99,,2013-04-04 02:11:00,
2013-04-03 22:21:00,38.0,18.0,30.27,North,-999,-999.0,-999.0,43,-99.99,,,-99.99,,2013-04-04 02:21:00,
2013-04-03 22:31:00,38.0,18.0,30.28,North,-999,-999.0,-999.0,43,-99.99,,,-99.99,,2013-04-04 02:31:00,
2013-04-03 22:52:00,38.0,18.0,30.28,North,-999,-999.0,-999.0,43,-99.99,,,-99.99,,2013-04-04 02:52:00,
2013-04-03 23:01:00,38.0,18.0,30.28,North,-999,-999.0,-999.0,44,-99.99,,,-99.99,,2013-04-04 03:01:00,
2013-04-03 23:21:00,38.0,18.0,30.29,North,-999,-999.0,-999.0,44,-99.99,,,-99.99,,2013-04-04 03:21:00,
2013-04-03 23:32:00,37.0,18.0,30.29,North,-999,-999.0,-999.0,45,-99.99,,,-99.99,,2013-04-04 03:32:00,
2013-04-03 23:43:00,37.0,18.0,30.29,North,-999,-999.0,-999.0,46,-99.99,,,-99.99,,2013-04-04 03:43:00,
2013-04-03 23:53:00,37.0,18.0,30.29,North,-999,-999.0,-999.0,46,-99.99,,,-99.99,,2013-04-04 03:53:00,